When you browse on this site, cookies collect data to enhance your experience and personalize the content and advertising you see.
Visit our Privacy Policy to learn more. By continuing to use the site, you agree to this use of cookies and data.
EN

Hourly Weather Berat

Today, 28 September, Monday

Time Temperature Precipitation Wind Pressure Humidity
00:00 +19°C° 0 mm 3 mps 742 mmHg 76%
01:00 +19°C° 0 mm 3 mps 741 mmHg 77%
02:00 +19°C° 0.1 mm 3 mps 741 mmHg 76%
03:00 +19°C° 0.1 mm 4 mps 740 mmHg 76%
04:00 +19°C° 0.1 mm 5 mps 740 mmHg 76%
05:00 +19°C° 0 mm 4 mps 741 mmHg 74%
06:00 +20°C° 0 mm 4 mps 741 mmHg 73%
07:00 +20°C° 0 mm 4 mps 742 mmHg 71%
08:00 +22°C° 0.3 mm 5 mps 742 mmHg 67%
09:00 +23°C° 0.3 mm 5 mps 742 mmHg 63%
10:00 +25°C° 0.3 mm 5 mps 743 mmHg 58%
11:00 +25°C° 0.7 mm 5 mps 743 mmHg 58%
12:00 +26°C° 0.7 mm 5 mps 743 mmHg 57%
13:00 +26°C° 0.7 mm 6 mps 743 mmHg 57%
14:00 +25°C° 0.7 mm 5 mps 742 mmHg 59%
15:00 +23°C° 0.7 mm 4 mps 742 mmHg 61%
16:00 +22°C° 0.7 mm 3 mps 742 mmHg 63%
17:00 +21°C° 0.4 mm 2 mps 742 mmHg 69%
18:00 +20°C° 0.4 mm 2 mps 743 mmHg 75%
19:00 +19°C° 0.4 mm 1 mps 743 mmHg 81%
20:00 +19°C° 0.3 mm 1 mps 743 mmHg 82%
21:00 +18°C° 0.3 mm 2 mps 743 mmHg 82%
22:00 +18°C° 0.3 mm 2 mps 743 mmHg 83%
23:00 +17°C° 1 mm 2 mps 743 mmHg 84%

Tomorrow, 29 September, Tuesday

Time Temperature Precipitation Wind Pressure Humidity
00:00 +17°C° 1 mm 2 mps 743 mmHg 86%
01:00 +17°C° 1 mm 2 mps 743 mmHg 87%
02:00 +17°C° 2.7 mm 2 mps 743 mmHg 88%
03:00 +16°C° 2.7 mm 2 mps 743 mmHg 89%
04:00 +16°C° 2.7 mm 1 mps 743 mmHg 90%
05:00 +16°C° 0.2 mm 1 mps 743 mmHg 86%
06:00 +18°C° 0.2 mm 1 mps 743 mmHg 83%
07:00 +19°C° 0.2 mm 1 mps 743 mmHg 80%
08:00 +19°C° 0.4 mm 2 mps 744 mmHg 75%
09:00 +20°C° 0.4 mm 2 mps 744 mmHg 70%
10:00 +21°C° 0.4 mm 3 mps 744 mmHg 66%
11:00 +21°C° 0.6 mm 3 mps 744 mmHg 65%
12:00 +21°C° 0.6 mm 4 mps 744 mmHg 64%
13:00 +21°C° 0.6 mm 4 mps 744 mmHg 63%
14:00 +21°C° 0.3 mm 4 mps 744 mmHg 66%
15:00 +20°C° 0.3 mm 3 mps 743 mmHg 68%
16:00 +19°C° 0.3 mm 3 mps 743 mmHg 70%
17:00 +18°C° 0.1 mm 2 mps 744 mmHg 75%
18:00 +17°C° 0.1 mm 2 mps 744 mmHg 80%
19:00 +16°C° 0.1 mm 1 mps 744 mmHg 84%
20:00 +16°C° 0 mm 1 mps 744 mmHg 85%
21:00 +16°C° 0 mm 1 mps 744 mmHg 85%
22:00 +15°C° 0 mm 0 mps 744 mmHg 85%
23:00 +14°C° 0 mm 0 mps 744 mmHg 85%

Day after tomorrow, 30 September, Wednesday

Time Temperature Precipitation Wind Pressure Humidity
00:00 +15°C° 0 mm 1 mps 744 mmHg 85%
01:00 +15°C° 0 mm 1 mps 744 mmHg 86%
02:00 +15°C° 0 mm 1 mps 744 mmHg 86%
03:00 +15°C° 0 mm 1 mps 743 mmHg 86%
04:00 +15°C° 0 mm 1 mps 743 mmHg 86%
05:00 +15°C° 0 mm 1 mps 743 mmHg 83%
06:00 +16°C° 0 mm 1 mps 743 mmHg 81%
07:00 +16°C° 0 mm 1 mps 743 mmHg 79%
08:00 +18°C° 0 mm 1 mps 743 mmHg 73%
09:00 +19°C° 0 mm 2 mps 743 mmHg 68%
10:00 +20°C° 0 mm 2 mps 743 mmHg 62%
11:00 +20°C° 0 mm 2 mps 742 mmHg 60%
12:00 +21°C° 0 mm 2 mps 742 mmHg 57%
13:00 +22°C° 0 mm 3 mps 742 mmHg 55%
14:00 +21°C° 0 mm 3 mps 741 mmHg 57%
15:00 +21°C° 0 mm 3 mps 741 mmHg 60%
16:00 +20°C° 0 mm 3 mps 741 mmHg 62%
17:00 +19°C° 0 mm 2 mps 741 mmHg 68%
18:00 +19°C° 0 mm 1 mps 741 mmHg 74%
19:00 +18°C° 0 mm 1 mps 741 mmHg 80%
20:00 +16°C° 0 mm 1 mps 741 mmHg 81%
21:00 +16°C° 0 mm 1 mps 741 mmHg 82%
22:00 +16°C° 0 mm 1 mps 741 mmHg 83%
23:00 +15°C° 0 mm 1 mps 741 mmHg 83%

1 October, Thursday

Time Temperature Precipitation Wind Pressure Humidity
00:00 +14°C° 0 mm 0 mps 740 mmHg 83%
01:00 +14°C° 0 mm 0 mps 740 mmHg 83%
02:00 +15°C° 0 mm 1 mps 740 mmHg 83%
03:00 +14°C° 0 mm 1 mps 740 mmHg 83%
04:00 +14°C° 0 mm 1 mps 740 mmHg 84%
05:00 +15°C° 0 mm 1 mps 740 mmHg 81%
06:00 +16°C° 0 mm 1 mps 739 mmHg 79%
07:00 +16°C° 0 mm 1 mps 739 mmHg 77%
08:00 +19°C° 0 mm 1 mps 739 mmHg 70%
09:00 +20°C° 0 mm 1 mps 739 mmHg 63%
10:00 +22°C° 0 mm 1 mps 739 mmHg 56%
11:00 +21°C° 0 mm 2 mps 739 mmHg 55%
12:00 +23°C° 0 mm 2 mps 739 mmHg 53%
13:00 +22°C° 0 mm 3 mps 739 mmHg 52%
14:00 +22°C° 0.1 mm 3 mps 739 mmHg 55%
15:00 +21°C° 0.1 mm 3 mps 739 mmHg 58%
16:00 +21°C° 0.1 mm 3 mps 739 mmHg 61%
17:00 +20°C° 0 mm 2 mps 739 mmHg 67%
18:00 +19°C° 0 mm 1 mps 739 mmHg 73%
19:00 +16°C° 0 mm 0 mps 740 mmHg 78%
20:00 +18°C° 0 mm 1 mps 740 mmHg 78%
21:00 +18°C° 0 mm 1 mps 740 mmHg 78%
22:00 +16°C° 0 mm 1 mps 740 mmHg 77%
23:00 +16°C° 0 mm 1 mps 740 mmHg 77%

2 October, Friday

Time Temperature Precipitation Wind Pressure Humidity
00:00 +16°C° 0 mm 1 mps 740 mmHg 76%
01:00 +16°C° 0 mm 1 mps 740 mmHg 75%
02:00 +16°C° 0 mm 1 mps 740 mmHg 76%
03:00 +16°C° 0 mm 1 mps 740 mmHg 76%
04:00 +16°C° 0 mm 1 mps 740 mmHg 76%
05:00 +16°C° 0 mm 1 mps 740 mmHg 75%
06:00 +18°C° 0 mm 1 mps 741 mmHg 73%
07:00 +19°C° 0 mm 1 mps 741 mmHg 71%
08:00 +21°C° 0 mm 1 mps 741 mmHg 64%
09:00 +22°C° 0 mm 1 mps 741 mmHg 57%
10:00 +24°C° 0 mm 1 mps 741 mmHg 50%
11:00 +25°C° 0 mm 1 mps 741 mmHg 48%
12:00 +26°C° 0 mm 1 mps 741 mmHg 45%
13:00 +27°C° 0 mm 2 mps 741 mmHg 43%
14:00 +26°C° 0 mm 2 mps 741 mmHg 45%
15:00 +26°C° 0 mm 2 mps 741 mmHg 47%
16:00 +26°C° 0 mm 2 mps 741 mmHg 49%
17:00 +24°C° 0 mm 2 mps 741 mmHg 56%
18:00 +22°C° 0 mm 1 mps 742 mmHg 64%
19:00 +21°C° 0 mm 1 mps 742 mmHg 71%
20:00 +20°C° 0 mm 1 mps 742 mmHg 72%
21:00 +19°C° 0 mm 2 mps 743 mmHg 72%
22:00 +19°C° 0 mm 2 mps 743 mmHg 73%
23:00 +18°C° 0 mm 2 mps 743 mmHg 72%

3 October, Saturday

Time Temperature Precipitation Wind Pressure Humidity
00:00 +18°C° 0 mm 2 mps 743 mmHg 71%
01:00 +18°C° 0 mm 2 mps 743 mmHg 70%
02:00 +18°C° 0 mm 2 mps 743 mmHg 70%
03:00 +18°C° 0 mm 2 mps 743 mmHg 69%
04:00 +18°C° 0 mm 2 mps 743 mmHg 69%
05:00 +18°C° 0 mm 2 mps 743 mmHg 68%
06:00 +19°C° 0 mm 2 mps 743 mmHg 67%
07:00 +20°C° 0 mm 2 mps 743 mmHg 65%
08:00 +23°C° 0 mm 2 mps 744 mmHg 59%
09:00 +25°C° 0 mm 1 mps 744 mmHg 53%
10:00 +27°C° 0 mm 1 mps 744 mmHg 46%
11:00 +28°C° 0 mm 1 mps 744 mmHg 44%
12:00 +29°C° 0 mm 1 mps 744 mmHg 41%
13:00 +30°C° 0 mm 2 mps 744 mmHg 38%
14:00 +29°C° 0 mm 2 mps 744 mmHg 41%
15:00 +29°C° 0 mm 2 mps 744 mmHg 44%
16:00 +28°C° 0 mm 2 mps 744 mmHg 47%
17:00 +26°C° 0 mm 2 mps 744 mmHg 52%
18:00 +25°C° 0 mm 1 mps 744 mmHg 57%
19:00 +23°C° 0 mm 1 mps 744 mmHg 62%
20:00 +23°C° 0 mm 1 mps 744 mmHg 60%
21:00 +23°C° 0 mm 2 mps 744 mmHg 58%
22:00 +23°C° 0 mm 2 mps 744 mmHg 56%
23:00 +21°C° 0 mm 2 mps 744 mmHg 55%
Show more